LUCH-5X (OLYMP-K 2)

Last updated on Thu Jul 03 2025 00:02:49 GMT+0000 (Coordinated Universal Time)

1 55841U 23031A 25183.77499946 .00000041 00000+0 00000+0 0 9999 2 55841 0.0174 84.6921 0001503 228.8909 308.4533 1.00272027 8436
UTC large
Height (km)
Speed (km/s)
/
Latitude / Longitude
Inclination (degrees)
Orbital Period (minutes)
Azimuth
Elevation
Range (km)
Doppler Factor

Next 0 passes for location: London (51.5072 / 0.1276)

Sorry there are no passes over London.